Time,TemperatureF,DewpointF,PressureIn,WindDirection,WindDirectionDegrees,WindSpeedMPH,WindSpeedGustMPH,Humidity,HourlyPrecipIn,Conditions,Clouds,dailyrainin,SoftwareType,DateUTC
2013-08-05 00:00:00,59.1,53.9,29.81,West,269,1.0,1.0,83,0.00,,,0.00,Wunderground v.1.15,2013-08-05 04:00:00,
2013-08-05 00:06:00,58.6,54.1,29.81,West,269,0.0,1.0,85,0.00,,,0.00,Wunderground v.1.15,2013-08-05 04:06:00,
2013-08-05 00:10:00,58.3,54.1,29.81,West,269,0.0,0.0,86,0.00,,,0.00,Wunderground v.1.15,2013-08-05 04:10:00,
2013-08-05 00:20:00,57.3,53.5,29.81,West,269,1.0,1.0,87,0.00,,,0.00,Wunderground v.1.15,2013-08-05 04:20:00,
2013-08-05 00:25:00,56.8,53.0,29.81,West,269,0.0,1.0,87,0.00,,,0.00,Wunderground v.1.15,2013-08-05 04:25:00,
2013-08-05 00:30:00,56.3,52.8,29.81,West,269,0.0,0.0,88,0.00,,,0.00,Wunderground v.1.15,2013-08-05 04:30:00,
2013-08-05 00:35:00,55.9,52.7,29.81,West,269,0.0,0.0,89,0.00,,,0.00,Wunderground v.1.15,2013-08-05 04:35:00,
2013-08-05 00:40:00,55.6,52.7,29.81,West,269,0.0,0.0,90,0.00,,,0.00,Wunderground v.1.15,2013-08-05 04:40:00,
2013-08-05 00:50:00,54.9,52.3,29.81,West,269,0.0,1.0,91,0.00,,,0.00,Wunderground v.1.15,2013-08-05 04:50:00,
2013-08-05 01:00:00,54.5,52.2,29.81,West,269,0.0,0.0,92,0.00,,,0.00,Wunderground v.1.15,2013-08-05 05:00:00,
2013-08-05 01:05:00,54.3,52.0,29.81,West,269,0.0,0.0,92,0.00,,,0.00,Wunderground v.1.15,2013-08-05 05:05:00,
2013-08-05 01:15:00,53.9,51.6,29.81,West,269,0.0,0.0,92,0.00,,,0.00,Wunderground v.1.15,2013-08-05 05:15:00,
2013-08-05 01:25:00,53.6,51.6,29.81,West,269,0.0,0.0,93,0.00,,,0.00,Wunderground v.1.15,2013-08-05 05:25:00,
2013-08-05 01:35:00,53.3,51.3,29.81,West,269,0.0,0.0,93,0.00,,,0.00,Wunderground v.1.15,2013-08-05 05:35:00,
2013-08-05 01:40:00,53.3,51.6,29.81,West,269,0.0,0.0,94,0.00,,,0.00,Wunderground v.1.15,2013-08-05 05:40:00,
2013-08-05 01:50:00,53.1,51.4,29.81,West,269,0.0,0.0,94,0.00,,,0.00,Wunderground v.1.15,2013-08-05 05:50:00,
2013-08-05 02:00:00,52.8,51.1,29.81,West,269,0.0,0.0,94,0.00,,,0.00,Wunderground v.1.15,2013-08-05 06:00:00,
2013-08-05 02:05:00,52.8,51.1,29.81,West,269,0.0,0.0,94,0.00,,,0.00,Wunderground v.1.15,2013-08-05 06:05:00,
2013-08-05 02:15:00,52.6,51.2,29.81,West,269,0.0,0.0,95,0.00,,,0.00,Wunderground v.1.15,2013-08-05 06:15:00,
2013-08-05 02:25:00,52.5,51.1,29.81,West,269,0.0,0.0,95,0.00,,,0.00,Wunderground v.1.15,2013-08-05 06:25:00,
2013-08-05 02:30:00,52.4,51.0,29.81,West,269,0.0,0.0,95,0.00,,,0.00,Wunderground v.1.15,2013-08-05 06:30:00,
2013-08-05 02:35:00,52.3,50.9,29.81,West,269,0.0,0.0,95,0.00,,,0.00,Wunderground v.1.15,2013-08-05 06:35:00,
2013-08-05 02:45:00,52.3,50.9,29.81,West,269,0.0,0.0,95,0.00,,,0.00,Wunderground v.1.15,2013-08-05 06:45:00,
2013-08-05 02:50:00,52.2,51.1,29.81,West,269,0.0,0.0,96,0.00,,,0.00,Wunderground v.1.15,2013-08-05 06:50:00,
2013-08-05 02:55:00,52.1,51.0,29.81,West,269,0.0,0.0,96,0.00,,,0.00,Wunderground v.1.15,2013-08-05 06:55:00,
2013-08-05 03:06:00,51.9,50.5,29.81,West,269,0.0,0.0,95,0.00,,,0.00,Wunderground v.1.15,2013-08-05 07:06:00,
2013-08-05 03:15:00,52.0,50.9,29.81,West,269,0.0,0.0,96,0.00,,,0.00,Wunderground v.1.15,2013-08-05 07:15:00,
2013-08-05 03:25:00,51.9,50.8,29.81,West,269,0.0,0.0,96,0.00,,,0.00,Wunderground v.1.15,2013-08-05 07:25:00,
2013-08-05 03:34:00,51.6,50.5,29.81,West,269,0.0,0.0,96,0.00,,,0.00,Wunderground v.1.15,2013-08-05 07:34:00,
2013-08-05 03:40:00,51.6,50.5,29.81,West,269,0.0,0.0,96,0.00,,,0.00,Wunderground v.1.15,2013-08-05 07:40:00,
2013-08-05 03:45:00,51.5,50.4,29.81,West,269,0.0,0.0,96,0.00,,,0.00,Wunderground v.1.15,2013-08-05 07:45:00,
2013-08-05 03:50:00,51.4,50.3,29.81,West,269,0.0,0.0,96,0.00,,,0.00,Wunderground v.1.15,2013-08-05 07:50:00,
2013-08-05 04:00:00,51.3,50.2,29.81,West,269,0.0,0.0,96,0.00,,,0.00,Wunderground v.1.15,2013-08-05 08:00:00,
2013-08-05 04:05:00,51.2,50.1,29.81,West,269,0.0,0.0,96,0.00,,,0.00,Wunderground v.1.15,2013-08-05 08:05:00,
2013-08-05 04:15:00,51.2,50.1,29.81,West,269,0.0,0.0,96,0.00,,,0.00,Wunderground v.1.15,2013-08-05 08:15:00,
2013-08-05 04:20:00,51.2,50.4,29.81,West,269,0.0,0.0,97,0.00,,,0.00,Wunderground v.1.15,2013-08-05 08:20:00,
2013-08-05 04:30:00,51.1,50.0,29.81,West,269,0.0,0.0,96,0.00,,,0.00,Wunderground v.1.15,2013-08-05 08:30:00,
2013-08-05 04:40:00,51.0,50.2,29.81,West,269,0.0,0.0,97,0.00,,,0.00,Wunderground v.1.15,2013-08-05 08:40:00,
2013-08-05 04:55:00,51.2,50.4,29.82,West,269,0.0,0.0,97,0.00,,,0.00,Wunderground v.1.15,2013-08-05 08:55:00,
2013-08-05 05:06:00,51.1,50.3,29.82,West,269,0.0,0.0,97,0.00,,,0.00,Wunderground v.1.15,2013-08-05 09:06:00,
2013-08-05 05:14:00,51.1,50.3,29.82,West,269,0.0,0.0,97,0.00,,,0.00,Wunderground v.1.15,2013-08-05 09:14:00,
2013-08-05 05:20:00,51.0,50.2,29.83,West,269,0.0,0.0,97,0.00,,,0.00,Wunderground v.1.15,2013-08-05 09:20:00,
2013-08-05 05:25:00,50.9,50.1,29.83,West,269,0.0,0.0,97,0.00,,,0.00,Wunderground v.1.15,2013-08-05 09:25:00,
2013-08-05 05:34:00,50.9,50.1,29.83,West,269,0.0,0.0,97,0.00,,,0.00,Wunderground v.1.15,2013-08-05 09:34:00,
2013-08-05 05:40:00,50.8,50.0,29.83,West,269,0.0,0.0,97,0.00,,,0.00,Wunderground v.1.15,2013-08-05 09:40:00,
2013-08-05 05:50:00,51.0,50.2,29.83,West,269,0.0,0.0,97,0.00,,,0.00,Wunderground v.1.15,2013-08-05 09:50:00,
2013-08-05 06:00:00,51.0,50.2,29.84,West,269,0.0,0.0,97,0.00,,,0.00,Wunderground v.1.15,2013-08-05 10:00:00,
2013-08-05 06:05:00,51.0,50.2,29.84,West,269,0.0,0.0,97,0.00,,,0.00,Wunderground v.1.15,2013-08-05 10:05:00,
2013-08-05 06:15:00,51.1,50.3,29.84,West,269,0.0,0.0,97,0.00,,,0.00,Wunderground v.1.15,2013-08-05 10:15:00,
2013-08-05 06:30:00,51.5,51.0,29.84,West,269,0.0,0.0,98,0.00,,,0.00,Wunderground v.1.15,2013-08-05 10:30:00,
2013-08-05 06:40:00,51.7,51.2,29.84,West,269,0.0,2.0,98,0.00,,,0.00,Wunderground v.1.15,2013-08-05 10:40:00,
2013-08-05 06:50:00,52.5,52.0,29.84,West,269,1.0,1.0,98,0.00,,,0.00,Wunderground v.1.15,2013-08-05 10:50:00,
2013-08-05 06:55:00,53.1,52.6,29.84,South,191,1.0,1.0,98,0.00,,,0.00,Wunderground v.1.15,2013-08-05 10:55:00,
2013-08-05 07:05:00,53.9,53.3,29.84,South,191,2.0,3.0,98,0.00,,,0.00,Wunderground v.1.15,2013-08-05 11:05:00,
2013-08-05 07:15:00,54.5,53.9,29.84,South,191,2.0,2.0,98,0.00,,,0.00,Wunderground v.1.15,2013-08-05 11:15:00,
2013-08-05 07:25:00,55.2,54.6,29.84,South,191,1.0,2.0,98,0.00,,,0.00,Wunderground v.1.15,2013-08-05 11:25:00,
2013-08-05 07:35:00,56.0,55.2,29.84,South,191,2.0,2.0,97,0.00,,,0.00,Wunderground v.1.15,2013-08-05 11:35:00,
2013-08-05 07:50:00,57.3,56.2,29.84,South,191,1.0,3.0,96,0.00,,,0.00,Wunderground v.1.15,2013-08-05 11:50:00,
2013-08-05 07:55:00,57.8,56.4,29.84,SW,220,2.0,3.0,95,0.00,,,0.00,Wunderground v.1.15,2013-08-05 11:55:00,
2013-08-05 08:06:00,58.8,56.5,29.85,SSW,204,3.0,4.0,92,0.00,,,0.00,Wunderground v.1.15,2013-08-05 12:06:00,
2013-08-05 08:15:00,59.6,57.3,29.84,SSW,205,3.0,4.0,92,0.00,,,0.00,Wunderground v.1.15,2013-08-05 12:15:00,
2013-08-05 08:20:00,60.0,57.4,29.85,SSW,205,2.0,2.0,91,0.00,,,0.00,Wunderground v.1.15,2013-08-05 12:20:00,
2013-08-05 08:25:00,60.4,57.1,29.85,SSW,205,3.0,4.0,89,0.00,,,0.00,Wunderground v.1.15,2013-08-05 12:25:00,
2013-08-05 08:40:00,61.2,57.9,29.85,SSW,202,4.0,6.0,89,0.00,,,0.00,Wunderground v.1.15,2013-08-05 12:40:00,
2013-08-05 09:06:00,63.1,59.2,29.85,SSW,207,2.0,4.0,87,0.00,,,0.00,Wunderground v.1.15,2013-08-05 13:06:00,
2013-08-05 09:15:00,63.7,59.1,29.85,SSW,211,3.0,4.0,85,0.00,,,0.00,Wunderground v.1.15,2013-08-05 13:15:00,
2013-08-05 09:25:00,64.6,60.0,29.85,SW,228,2.0,3.0,85,0.00,,,0.00,Wunderground v.1.15,2013-08-05 13:25:00,
2013-08-05 09:35:00,65.3,59.7,29.85,SW,216,2.0,4.0,82,0.00,,,0.00,Wunderground v.1.15,2013-08-05 13:35:00,
2013-08-05 09:45:00,65.5,59.9,29.85,SW,217,4.0,6.0,82,0.00,,,0.00,Wunderground v.1.15,2013-08-05 13:45:00,
2013-08-05 10:05:00,66.3,60.3,29.85,SSW,211,2.0,3.0,81,0.00,,,0.00,Wunderground v.1.15,2013-08-05 14:05:00,
2013-08-05 10:15:00,67.2,60.1,29.85,SSW,211,1.0,4.0,78,0.00,,,0.00,Wunderground v.1.15,2013-08-05 14:15:00,
2013-08-05 10:25:00,67.7,59.9,29.85,South,177,4.0,5.0,76,0.00,,,0.00,Wunderground v.1.15,2013-08-05 14:25:00,
2013-08-05 10:35:00,68.5,60.3,29.85,SSW,198,2.0,4.0,75,0.00,,,0.00,Wunderground v.1.15,2013-08-05 14:35:00,
2013-08-05 10:45:00,69.4,60.4,29.84,SW,216,2.0,3.0,73,0.00,,,0.00,Wunderground v.1.15,2013-08-05 14:45:00,
2013-08-05 10:55:00,69.2,59.8,29.84,SSW,209,3.0,3.0,72,0.00,,,0.00,Wunderground v.1.15,2013-08-05 14:55:00,
2013-08-05 11:00:00,68.8,59.8,29.84,SSW,209,2.0,2.0,73,0.00,,,0.00,Wunderground v.1.15,2013-08-05 15:00:00,
2013-08-05 11:05:00,69.0,60.0,29.84,SSW,204,1.0,3.0,73,0.00,,,0.00,Wunderground v.1.15,2013-08-05 15:05:00,
2013-08-05 11:15:00,69.6,59.4,29.84,SW,226,4.0,6.0,70,0.00,,,0.00,Wunderground v.1.15,2013-08-05 15:15:00,
2013-08-05 11:25:00,71.0,59.1,29.84,West,259,1.0,3.0,66,0.00,,,0.00,Wunderground v.1.15,2013-08-05 15:25:00,
2013-08-05 11:40:00,71.4,59.4,29.83,South,190,2.0,2.0,66,0.00,,,0.00,Wunderground v.1.15,2013-08-05 15:40:00,
2013-08-05 11:50:00,71.1,58.3,29.83,SSW,204,2.0,2.0,64,0.00,,,0.00,Wunderground v.1.15,2013-08-05 15:50:00,
2013-08-05 12:00:00,71.8,58.5,29.83,SW,218,1.0,2.0,63,0.00,,,0.00,Wunderground v.1.15,2013-08-05 16:00:00,
2013-08-05 12:05:00,72.1,58.4,29.83,SSW,211,2.0,3.0,62,0.00,,,0.00,Wunderground v.1.15,2013-08-05 16:05:00,
2013-08-05 12:30:00,73.5,60.1,29.82,WNW,295,2.0,2.0,63,0.00,,,0.00,Wunderground v.1.15,2013-08-05 16:30:00,
2013-08-05 12:35:00,73.6,58.4,29.82,NNW,344,2.0,2.0,59,0.00,,,0.00,Wunderground v.1.15,2013-08-05 16:35:00,
2013-08-05 12:45:00,73.5,57.8,29.82,West,279,1.0,2.0,58,0.00,,,0.00,Wunderground v.1.15,2013-08-05 16:45:00,
2013-08-05 12:50:00,72.7,58.0,29.82,WSW,255,2.0,2.0,60,0.00,,,0.00,Wunderground v.1.15,2013-08-05 16:50:00,
2013-08-05 13:00:00,72.5,57.8,29.82,WSW,244,2.0,2.0,60,0.00,,,0.00,Wunderground v.1.15,2013-08-05 17:00:00,
2013-08-05 13:15:00,73.2,58.5,29.81,NW,311,2.0,4.0,60,0.00,,,0.00,Wunderground v.1.15,2013-08-05 17:15:00,
2013-08-05 13:25:00,72.1,58.4,29.80,WNW,292,1.0,2.0,62,0.00,,,0.00,Wunderground v.1.15,2013-08-05 17:25:00,
2013-08-05 13:40:00,72.9,57.7,29.80,WNW,292,1.0,1.0,59,0.00,,,0.00,Wunderground v.1.15,2013-08-05 17:40:00,
2013-08-05 13:45:00,72.6,59.7,29.80,WNW,292,1.0,1.0,64,0.00,,,0.00,Wunderground v.1.15,2013-08-05 17:45:00,
2013-08-05 14:00:00,73.5,59.7,29.80,North,11,2.0,4.0,62,0.00,,,0.00,Wunderground v.1.15,2013-08-05 18:00:00,
2013-08-05 14:06:00,74.3,60.0,29.80,West,272,2.0,4.0,61,0.00,,,0.00,Wunderground v.1.15,2013-08-05 18:06:00,
2013-08-05 14:15:00,74.6,57.9,29.80,North,355,2.0,2.0,56,0.00,,,0.00,Wunderground v.1.15,2013-08-05 18:15:00,
2013-08-05 14:25:00,75.5,61.1,29.79,NNW,348,2.0,2.0,61,0.00,,,0.00,Wunderground v.1.15,2013-08-05 18:25:00,
2013-08-05 14:30:00,75.5,58.7,29.79,WNW,290,2.0,2.0,56,0.00,,,0.00,Wunderground v.1.15,2013-08-05 18:30:00,
2013-08-05 14:40:00,75.6,58.3,29.79,West,271,2.0,5.0,55,0.00,,,0.00,Wunderground v.1.15,2013-08-05 18:40:00,
2013-08-05 14:50:00,74.9,58.6,29.79,WNW,288,2.0,2.0,57,0.00,,,0.00,Wunderground v.1.15,2013-08-05 18:50:00,
2013-08-05 15:05:00,74.0,57.3,29.79,NNE,33,1.0,2.0,56,0.00,,,0.00,Wunderground v.1.15,2013-08-05 19:05:00,
2013-08-05 15:15:00,74.3,60.0,29.79,ENE,59,1.0,3.0,61,0.00,,,0.00,Wunderground v.1.15,2013-08-05 19:15:00,
2013-08-05 15:20:00,74.3,58.1,29.79,ENE,59,1.0,1.0,57,0.00,,,0.00,Wunderground v.1.15,2013-08-05 19:20:00,
2013-08-05 15:30:00,74.6,59.8,29.78,WNW,299,2.0,3.0,60,0.00,,,0.00,Wunderground v.1.15,2013-08-05 19:30:00,
2013-08-05 15:40:00,74.7,57.5,29.78,North,5,2.0,2.0,55,0.00,,,0.00,Wunderground v.1.15,2013-08-05 19:40:00,
2013-08-05 15:50:00,74.2,57.5,29.78,WNW,283,1.0,3.0,56,0.00,,,0.00,Wunderground v.1.15,2013-08-05 19:50:00,
2013-08-05 16:00:00,73.4,58.7,29.78,WNW,292,2.0,2.0,60,0.00,,,0.00,Wunderground v.1.15,2013-08-05 20:00:00,
2013-08-05 16:05:00,73.8,56.6,29.78,WNW,292,1.0,2.0,55,0.00,,,0.00,Wunderground v.1.15,2013-08-05 20:05:00,
2013-08-05 16:15:00,74.6,58.8,29.78,ENE,59,1.0,2.0,58,0.00,,,0.00,Wunderground v.1.15,2013-08-05 20:15:00,
2013-08-05 16:25:00,75.2,58.4,29.78,NE,49,1.0,1.0,56,0.00,,,0.00,Wunderground v.1.15,2013-08-05 20:25:00,
2013-08-05 16:35:00,75.6,57.8,29.78,NW,315,1.0,2.0,54,0.00,,,0.00,Wunderground v.1.15,2013-08-05 20:35:00,
2013-08-05 16:40:00,76.0,60.2,29.78,NNE,19,1.0,2.0,58,0.00,,,0.00,Wunderground v.1.15,2013-08-05 20:40:00,
2013-08-05 16:50:00,76.2,57.3,29.78,WNW,285,2.0,2.0,52,0.00,,,0.00,Wunderground v.1.15,2013-08-05 20:50:00,
2013-08-05 17:05:00,76.0,56.6,29.78,NNW,332,2.0,3.0,51,0.00,,,0.00,Wunderground v.1.15,2013-08-05 21:05:00,
2013-08-05 17:15:00,75.8,57.4,29.77,WNW,294,2.0,2.0,53,0.00,,,0.00,Wunderground v.1.15,2013-08-05 21:15:00,
2013-08-05 17:25:00,75.9,59.1,29.77,WNW,285,2.0,2.0,56,0.00,,,0.00,Wunderground v.1.15,2013-08-05 21:25:00,
2013-08-05 17:35:00,76.0,60.6,29.77,WNW,288,1.0,3.0,59,0.00,,,0.00,Wunderground v.1.15,2013-08-05 21:35:00,
2013-08-05 17:45:00,76.4,57.5,29.77,WNW,288,0.0,1.0,52,0.00,,,0.00,Wunderground v.1.15,2013-08-05 21:45:00,
2013-08-05 17:55:00,75.9,59.1,29.77,WNW,293,1.0,3.0,56,0.00,,,0.00,Wunderground v.1.15,2013-08-05 21:55:00,
2013-08-05 18:06:00,75.6,57.3,29.77,SW,215,1.0,1.0,53,0.00,,,0.00,Wunderground v.1.15,2013-08-05 22:06:00,
2013-08-05 18:15:00,75.3,59.5,29.77,West,275,0.0,1.0,58,0.00,,,0.00,Wunderground v.1.15,2013-08-05 22:15:00,
2013-08-05 18:20:00,75.3,58.5,29.77,West,275,0.0,0.0,56,0.00,,,0.00,Wunderground v.1.15,2013-08-05 22:20:00,
2013-08-05 18:30:00,75.6,57.3,29.76,West,275,0.0,0.0,53,0.00,,,0.00,Wunderground v.1.15,2013-08-05 22:30:00,
2013-08-05 18:40:00,74.9,60.1,29.76,West,275,0.0,0.0,60,0.00,,,0.00,Wunderground v.1.15,2013-08-05 22:40:00,
2013-08-05 18:50:00,74.0,59.2,29.76,West,275,0.0,0.0,60,0.00,,,0.00,Wunderground v.1.15,2013-08-05 22:50:00,
2013-08-05 19:00:00,73.9,60.1,29.76,West,275,0.0,0.0,62,0.00,,,0.00,Wunderground v.1.15,2013-08-05 23:00:00,
2013-08-05 19:05:00,73.7,59.4,29.76,West,275,0.0,0.0,61,0.00,,,0.00,Wunderground v.1.15,2013-08-05 23:05:00,
2013-08-05 19:15:00,73.3,60.4,29.76,West,275,0.0,0.0,64,0.00,,,0.00,Wunderground v.1.15,2013-08-05 23:15:00,
2013-08-05 19:20:00,73.4,60.9,29.76,West,275,0.0,0.0,65,0.00,,,0.00,Wunderground v.1.15,2013-08-05 23:20:00,
2013-08-05 19:30:00,74.1,60.7,29.76,West,275,0.0,0.0,63,0.00,,,0.00,Wunderground v.1.15,2013-08-05 23:30:00,
2013-08-05 19:35:00,74.5,62.0,29.76,West,275,0.0,0.0,65,0.00,,,0.00,Wunderground v.1.15,2013-08-05 23:35:00,
2013-08-05 19:45:00,75.0,62.9,29.76,West,275,0.0,0.0,66,0.00,,,0.00,Wunderground v.1.15,2013-08-05 23:45:00,
2013-08-05 19:50:00,75.0,64.1,29.76,West,275,0.0,0.0,69,0.00,,,0.00,Wunderground v.1.15,2013-08-05 23:50:00,
2013-08-05 19:55:00,74.6,64.6,29.76,West,275,0.0,0.0,71,0.00,,,0.00,Wunderground v.1.15,2013-08-05 23:55:00,
2013-08-05 20:06:00,72.3,62.8,29.76,West,275,0.0,0.0,72,0.00,,,0.00,Wunderground v.1.15,2013-08-06 00:06:00,
2013-08-05 20:15:00,70.1,62.6,29.76,West,275,0.0,0.0,77,0.00,,,0.00,Wunderground v.1.15,2013-08-06 00:15:00,
2013-08-05 20:25:00,68.4,62.3,29.76,West,275,0.0,0.0,81,0.00,,,0.00,Wunderground v.1.15,2013-08-06 00:25:00,
2013-08-05 20:40:00,66.2,60.9,29.76,West,275,0.0,0.0,83,0.00,,,0.00,Wunderground v.1.15,2013-08-06 00:40:00,
2013-08-05 20:45:00,65.4,60.4,29.76,West,275,0.0,0.0,84,0.00,,,0.00,Wunderground v.1.15,2013-08-06 00:45:00,
2013-08-05 20:50:00,64.7,60.1,29.76,West,275,0.0,0.0,85,0.00,,,0.00,Wunderground v.1.15,2013-08-06 00:50:00,
2013-08-05 21:00:00,63.3,59.4,29.77,West,275,0.0,1.0,87,0.00,,,0.00,Wunderground v.1.15,2013-08-06 01:00:00,
2013-08-05 21:05:00,62.6,59.0,29.76,West,275,0.0,1.0,88,0.00,,,0.00,Wunderground v.1.15,2013-08-06 01:05:00,
2013-08-05 21:15:00,61.7,58.4,29.76,West,275,0.0,0.0,89,0.00,,,0.00,Wunderground v.1.15,2013-08-06 01:15:00,
2013-08-05 21:20:00,61.2,58.2,29.76,West,275,0.0,1.0,90,0.00,,,0.00,Wunderground v.1.15,2013-08-06 01:20:00,
2013-08-05 21:30:00,60.5,57.9,29.77,West,275,0.0,0.0,91,0.00,,,0.00,Wunderground v.1.15,2013-08-06 01:30:00,
2013-08-05 21:35:00,60.2,57.6,29.77,West,275,0.0,0.0,91,0.00,,,0.00,Wunderground v.1.15,2013-08-06 01:35:00,
2013-08-05 21:45:00,59.7,57.4,29.77,West,275,0.0,0.0,92,0.00,,,0.00,Wunderground v.1.15,2013-08-06 01:45:00,
2013-08-05 21:55:00,59.3,57.0,29.77,West,275,0.0,0.0,92,0.00,,,0.00,Wunderground v.1.15,2013-08-06 01:55:00,
2013-08-05 22:06:00,58.9,56.9,29.76,West,275,0.0,0.0,93,0.00,,,0.00,Wunderground v.1.15,2013-08-06 02:06:00,
2013-08-05 22:15:00,58.5,56.5,29.76,West,275,0.0,0.0,93,0.00,,,0.00,Wunderground v.1.15,2013-08-06 02:15:00,
2013-08-05 22:25:00,58.0,56.0,29.76,West,275,0.0,0.0,93,0.00,,,0.00,Wunderground v.1.15,2013-08-06 02:25:00,
2013-08-05 22:30:00,57.9,55.9,29.76,West,275,0.0,0.0,93,0.00,,,0.00,Wunderground v.1.15,2013-08-06 02:30:00,
2013-08-05 22:40:00,57.6,55.9,29.76,West,275,0.0,0.0,94,0.00,,,0.00,Wunderground v.1.15,2013-08-06 02:40:00,
2013-08-05 22:50:00,57.2,55.5,29.76,West,275,0.0,0.0,94,0.00,,,0.00,Wunderground v.1.15,2013-08-06 02:50:00,
2013-08-05 23:05:00,56.9,55.5,29.76,West,275,0.0,0.0,95,0.00,,,0.00,Wunderground v.1.15,2013-08-06 03:05:00,
2013-08-05 23:15:00,56.9,55.5,29.76,West,275,0.0,1.0,95,0.00,,,0.00,Wunderground v.1.15,2013-08-06 03:15:00,
2013-08-05 23:30:00,56.8,55.7,29.76,West,275,0.0,0.0,96,0.00,,,0.00,Wunderground v.1.15,2013-08-06 03:30:00,
2013-08-05 23:40:00,56.5,55.4,29.75,West,275,0.0,0.0,96,0.00,,,0.00,Wunderground v.1.15,2013-08-06 03:40:00,
2013-08-05 23:50:00,56.3,54.9,29.76,West,275,0.0,0.0,95,0.00,,,0.00,Wunderground v.1.15,2013-08-06 03:50:00,